HIMAWARI 7

导读 | 星芒AI

HIMAWARI 7 是日本气象厅(JMA)运营的静止气象卫星,于1996年发射,2006年退役。它位于东经140度的轨道位置,主要任务是提供日本及其周边地区的气象观测数据,包括云层分布、台风监测和天气预报支持。HIMAWARI 7 搭载了先进的可见光和红外线传感器,能够以高分辨率和高频率拍摄地球图像,为气象研究和灾害预警提供了重要信息。作为 HIMAWARI 系列的第五代卫星,它在服务期间为亚洲地区的气象监测做出了重要贡献。

基本信息
目录编号:
28937
目录名称:
HIMAWARI 7
国际标识:
2006-004A
轨道中心:
EARTH
卫星名称:
HIMAWARI 7
卫星全名:
--
卫星状态:
在轨 (已飞行7240 天)
发射日期:
2006-02-18 UTC
国别 :
日本 (JP)
星等 :
--
轨道信息
数据来源 国际轨道数据 AOE轨道数据
星历时间 2025-12-14T07:49:23+0800
1天前
查看轨道信息
2025-12-15T06:00:00+0800
10小时前
查看轨道信息
半长轴 42502.893km 42503.179km
偏心率 0.0011557 0.0011544
轨道倾角 5.305° 5.307°
近地点辐角 169.620° 169.894°
升交点赤经 75.294° 75.286°
平近点角 216.920° 186.238°
近地点 36075.637km 36075.978km
远地点 36173.879km 36174.11km
周期 1453.408分钟 1453.422分钟
每日圈数 0.990775 0.990765
详细信息
使用方式:
暂无
2D轨道图
3D轨道图
轨道高度分析图
轨道倾角分析图
轨道综合分析图
查看轨道综合分析图